Year,Month,Day,Hour,Minute,Value (Times are PST for temperature in C)
2015,06,15,00,00,13.30
2015,06,15,00,01,13.30
2015,06,15,00,02,13.30
2015,06,15,00,03,13.30
2015,06,15,00,04,13.20
2015,06,15,00,05,13.20
2015,06,15,00,06,13.20
2015,06,15,00,07,13.20
2015,06,15,00,08,13.20
2015,06,15,00,09,13.10
2015,06,15,00,10,13.10
2015,06,15,00,11,13.10
2015,06,15,00,12,13.10
2015,06,15,00,13,13.10
2015,06,15,00,14,13.10
2015,06,15,00,15,13.00
2015,06,15,00,16,13.00
2015,06,15,00,17,13.00
2015,06,15,00,18,12.90
2015,06,15,00,19,12.90
2015,06,15,00,20,12.90
2015,06,15,00,21,12.90
2015,06,15,00,22,12.90
2015,06,15,00,23,12.90
2015,06,15,00,24,12.80
2015,06,15,00,25,12.80
2015,06,15,00,26,12.80
2015,06,15,00,27,12.80
2015,06,15,00,28,12.80
2015,06,15,00,29,12.80
2015,06,15,00,30,12.80
2015,06,15,00,31,12.70
2015,06,15,00,32,12.70
2015,06,15,00,33,12.70
2015,06,15,00,34,12.70
2015,06,15,00,35,12.70
2015,06,15,00,36,12.60
2015,06,15,00,37,12.60
2015,06,15,00,38,12.60
2015,06,15,00,39,12.60
2015,06,15,00,40,12.50
2015,06,15,00,41,12.50
2015,06,15,00,42,12.50
2015,06,15,00,43,12.50
2015,06,15,00,44,12.40
2015,06,15,00,45,12.40
2015,06,15,00,46,12.40
2015,06,15,00,47,12.40
2015,06,15,00,48,12.40
2015,06,15,00,49,12.40
2015,06,15,00,50,12.30
2015,06,15,00,51,12.30
2015,06,15,00,52,12.30
2015,06,15,00,53,12.30
2015,06,15,00,54,12.30
2015,06,15,00,55,12.30
2015,06,15,00,56,12.30
2015,06,15,00,57,12.20
2015,06,15,00,58,12.20
2015,06,15,00,59,12.20
2015,06,15,01,00,12.20
2015,06,15,01,01,12.20
2015,06,15,01,02,12.20
2015,06,15,01,03,12.20
2015,06,15,01,04,12.10
2015,06,15,01,05,12.10
2015,06,15,01,06,12.10
2015,06,15,01,07,12.10
2015,06,15,01,08,12.10
2015,06,15,01,09,12.10
2015,06,15,01,10,12.00
2015,06,15,01,11,12.00
2015,06,15,01,12,12.00
2015,06,15,01,13,12.00
2015,06,15,01,14,12.00
2015,06,15,01,15,11.90
2015,06,15,01,16,11.90
2015,06,15,01,17,11.90
2015,06,15,01,18,11.90
2015,06,15,01,19,11.90
2015,06,15,01,20,11.90
2015,06,15,01,21,11.90
2015,06,15,01,22,11.80
2015,06,15,01,23,11.80
2015,06,15,01,24,11.80
2015,06,15,01,25,11.80
2015,06,15,01,26,11.80
2015,06,15,01,27,11.80
2015,06,15,01,28,11.80
2015,06,15,01,29,11.70
2015,06,15,01,30,11.70
2015,06,15,01,31,11.70
2015,06,15,01,32,11.70
2015,06,15,01,33,11.70
2015,06,15,01,34,11.60
2015,06,15,01,35,11.60
2015,06,15,01,36,11.60
2015,06,15,01,37,11.60
2015,06,15,01,38,11.60
2015,06,15,01,39,11.60
2015,06,15,01,40,11.50
2015,06,15,01,41,11.50
2015,06,15,01,42,11.50
2015,06,15,01,43,11.50
2015,06,15,01,44,11.40
2015,06,15,01,45,11.40
2015,06,15,01,46,11.40
2015,06,15,01,47,11.40
2015,06,15,01,48,11.40
2015,06,15,01,49,11.40
2015,06,15,01,50,11.30
2015,06,15,01,51,11.30
2015,06,15,01,52,11.30
2015,06,15,01,53,11.30
2015,06,15,01,54,11.30
2015,06,15,01,55,11.30
2015,06,15,01,56,11.20
2015,06,15,01,57,11.20
2015,06,15,01,58,11.20
2015,06,15,01,59,11.20
2015,06,15,02,00,11.20
2015,06,15,02,01,11.20
2015,06,15,02,02,11.20
2015,06,15,02,03,11.20
2015,06,15,02,04,11.20
2015,06,15,02,05,11.20
2015,06,15,02,06,11.20
2015,06,15,02,07,11.10
2015,06,15,02,08,11.10
2015,06,15,02,09,11.10
2015,06,15,02,10,11.10
2015,06,15,02,11,11.10
2015,06,15,02,12,11.10
2015,06,15,02,13,11.10
2015,06,15,02,14,11.10
2015,06,15,02,15,11.10
2015,06,15,02,16,11.10
2015,06,15,02,17,11.10
2015,06,15,02,18,11.10
2015,06,15,02,19,11.10
2015,06,15,02,20,11.10
2015,06,15,02,21,11.10
2015,06,15,02,22,11.00
2015,06,15,02,23,11.00
2015,06,15,02,24,11.00
2015,06,15,02,25,11.00
2015,06,15,02,26,10.90
2015,06,15,02,27,10.90
2015,06,15,02,28,10.90
2015,06,15,02,29,10.90
2015,06,15,02,30,10.90
2015,06,15,02,31,10.90
2015,06,15,02,32,10.90
2015,06,15,02,33,10.90
2015,06,15,02,34,10.90
2015,06,15,02,35,10.90
2015,06,15,02,36,10.80
2015,06,15,02,37,10.80
2015,06,15,02,38,10.80
2015,06,15,02,39,10.80
2015,06,15,02,40,10.80
2015,06,15,02,41,10.80
2015,06,15,02,42,10.80
2015,06,15,02,43,10.80
2015,06,15,02,44,10.80
2015,06,15,02,45,10.80
2015,06,15,02,46,10.80
2015,06,15,02,47,10.80
2015,06,15,02,48,10.70
2015,06,15,02,49,10.70
2015,06,15,02,50,10.70
2015,06,15,02,51,10.70
2015,06,15,02,52,10.70
2015,06,15,02,53,10.70
2015,06,15,02,54,10.70
2015,06,15,02,55,10.70
2015,06,15,02,56,10.60
2015,06,15,02,57,10.60
2015,06,15,02,58,10.60
2015,06,15,02,59,10.60
2015,06,15,03,00,10.60
2015,06,15,03,01,10.60
2015,06,15,03,02,10.60
2015,06,15,03,03,10.50
2015,06,15,03,04,10.50
2015,06,15,03,05,10.50
2015,06,15,03,06,10.50
2015,06,15,03,07,10.40
2015,06,15,03,08,10.40
2015,06,15,03,09,10.40
2015,06,15,03,10,10.40
2015,06,15,03,11,10.40
2015,06,15,03,12,10.40
2015,06,15,03,13,10.40
2015,06,15,03,14,10.40
2015,06,15,03,15,10.30
2015,06,15,03,16,10.30
2015,06,15,03,17,10.30
2015,06,15,03,18,10.30
2015,06,15,03,19,10.30
2015,06,15,03,20,10.30
2015,06,15,03,21,10.30
2015,06,15,03,22,10.30
2015,06,15,03,23,10.30
2015,06,15,03,24,10.30
2015,06,15,03,25,10.20
2015,06,15,03,26,10.20
2015,06,15,03,27,10.20
2015,06,15,03,28,10.20
2015,06,15,03,29,10.20
2015,06,15,03,30,10.20
2015,06,15,03,31,10.20
2015,06,15,03,32,10.20
2015,06,15,03,33,10.20
2015,06,15,03,34,10.20
2015,06,15,03,35,10.20
2015,06,15,03,36,10.20
2015,06,15,03,37,10.20
2015,06,15,03,38,10.20
2015,06,15,03,39,10.20
2015,06,15,03,40,10.20
2015,06,15,03,41,10.20
2015,06,15,03,42,10.20
2015,06,15,03,43,10.10
2015,06,15,03,44,10.10
2015,06,15,03,45,10.10
2015,06,15,03,46,10.10
2015,06,15,03,47,10.10
2015,06,15,03,48,10.10
2015,06,15,03,49,10.10
2015,06,15,03,50,10.10
2015,06,15,03,51,10.10
2015,06,15,03,52,10.00
2015,06,15,03,53,10.00
2015,06,15,03,54,10.00
2015,06,15,03,55,10.00
2015,06,15,03,56,9.90
2015,06,15,03,57,9.90
2015,06,15,03,58,9.90
2015,06,15,03,59,9.90
2015,06,15,04,00,9.90
2015,06,15,04,01,9.80
2015,06,15,04,02,9.80
2015,06,15,04,03,9.80
2015,06,15,04,04,9.80
2015,06,15,04,05,9.80
2015,06,15,04,06,9.80
2015,06,15,04,07,9.80
2015,06,15,04,08,9.80
2015,06,15,04,09,9.80
2015,06,15,04,10,9.80
2015,06,15,04,11,9.80
2015,06,15,04,12,9.70
2015,06,15,04,13,9.70
2015,06,15,04,14,9.70
2015,06,15,04,15,9.70
2015,06,15,04,16,9.70
2015,06,15,04,17,9.70
2015,06,15,04,18,9.70
2015,06,15,04,19,9.70
2015,06,15,04,20,9.70
2015,06,15,04,21,9.70
2015,06,15,04,22,9.70
2015,06,15,04,23,9.70
2015,06,15,04,24,9.70
2015,06,15,04,25,9.70
2015,06,15,04,26,9.70
2015,06,15,04,27,9.70
2015,06,15,04,28,9.70
2015,06,15,04,29,9.70
2015,06,15,04,30,9.70
2015,06,15,04,31,9.60
2015,06,15,04,32,9.60
2015,06,15,04,33,9.60
2015,06,15,04,34,9.60
2015,06,15,04,35,9.60
2015,06,15,04,36,9.60
2015,06,15,04,37,9.60
2015,06,15,04,38,9.60
2015,06,15,04,39,9.60
2015,06,15,04,40,9.60
2015,06,15,04,41,9.60
2015,06,15,04,42,9.60
2015,06,15,04,43,9.60
2015,06,15,04,44,9.60
2015,06,15,04,45,9.60
2015,06,15,04,46,9.60
2015,06,15,04,47,9.60
2015,06,15,04,48,9.60
2015,06,15,04,49,9.60
2015,06,15,04,50,9.60
2015,06,15,04,51,9.60
2015,06,15,04,52,9.60
2015,06,15,04,53,9.60
2015,06,15,04,54,9.60
2015,06,15,04,55,9.50
2015,06,15,04,56,9.50
2015,06,15,04,57,9.50
2015,06,15,04,58,9.50
2015,06,15,04,59,9.50
2015,06,15,05,00,9.50
2015,06,15,05,01,9.50
2015,06,15,05,02,9.50
2015,06,15,05,03,9.40
2015,06,15,05,04,9.40
2015,06,15,05,05,9.40
2015,06,15,05,06,9.40
2015,06,15,05,07,9.40
2015,06,15,05,08,9.40
2015,06,15,05,09,9.40
2015,06,15,05,10,9.40
2015,06,15,05,11,9.40
2015,06,15,05,12,9.40
2015,06,15,05,13,9.40
2015,06,15,05,14,9.40
2015,06,15,05,15,9.40
2015,06,15,05,16,9.40
2015,06,15,05,17,9.40
2015,06,15,05,18,9.40
2015,06,15,05,19,9.40
2015,06,15,05,20,9.40
2015,06,15,05,21,9.40
2015,06,15,05,22,9.40
2015,06,15,05,23,9.40
2015,06,15,05,24,9.40
2015,06,15,05,25,9.40
2015,06,15,05,26,9.40
2015,06,15,05,27,9.40
2015,06,15,05,28,9.40
2015,06,15,05,29,9.40
2015,06,15,05,30,9.50
2015,06,15,05,31,9.50
2015,06,15,05,32,9.50
2015,06,15,05,33,9.50
2015,06,15,05,34,9.40
2015,06,15,05,35,9.40
2015,06,15,05,36,9.40
2015,06,15,05,37,9.40
2015,06,15,05,38,9.40
2015,06,15,05,39,9.40
2015,06,15,05,40,9.40
2015,06,15,05,41,9.40
2015,06,15,05,42,9.40
2015,06,15,05,43,9.30
2015,06,15,05,44,9.30
2015,06,15,05,45,9.30
2015,06,15,05,46,9.30
2015,06,15,05,47,9.30
2015,06,15,05,48,9.30
2015,06,15,05,49,9.30
2015,06,15,05,50,9.30
2015,06,15,05,51,9.30
2015,06,15,05,52,9.30
2015,06,15,05,53,9.30
2015,06,15,05,54,9.30
2015,06,15,05,55,9.30
2015,06,15,05,56,9.30
2015,06,15,05,57,9.30
2015,06,15,05,58,9.30
2015,06,15,05,59,9.40
2015,06,15,06,00,9.40
2015,06,15,06,01,9.40
2015,06,15,06,02,9.40
2015,06,15,06,03,9.40
2015,06,15,06,04,9.40
2015,06,15,06,05,9.40
2015,06,15,06,06,9.40
2015,06,15,06,07,9.40
2015,06,15,06,08,9.40
2015,06,15,06,09,9.40
2015,06,15,06,10,9.40
2015,06,15,06,11,9.40
2015,06,15,06,12,9.40
2015,06,15,06,13,9.50
2015,06,15,06,14,9.50
2015,06,15,06,15,9.50
2015,06,15,06,16,9.60
2015,06,15,06,17,9.60
2015,06,15,06,18,9.60
2015,06,15,06,19,9.60
2015,06,15,06,20,9.70
2015,06,15,06,21,9.70
2015,06,15,06,22,9.70
2015,06,15,06,23,9.70
2015,06,15,06,24,9.80
2015,06,15,06,25,9.80
2015,06,15,06,26,9.90
2015,06,15,06,27,9.90
2015,06,15,06,28,10.00
2015,06,15,06,29,10.10
2015,06,15,06,30,10.10
2015,06,15,06,31,10.20
2015,06,15,06,32,10.20
2015,06,15,06,33,10.30
2015,06,15,06,34,10.40
2015,06,15,06,35,10.50
2015,06,15,06,36,10.50
2015,06,15,06,37,10.60
2015,06,15,06,38,10.70
2015,06,15,06,39,10.80
2015,06,15,06,40,10.90
2015,06,15,06,41,11.00
2015,06,15,06,42,11.10
2015,06,15,06,43,11.10
2015,06,15,06,44,11.20
2015,06,15,06,45,11.30
2015,06,15,06,46,11.40
2015,06,15,06,47,11.50
2015,06,15,06,48,11.60
2015,06,15,06,49,11.70
2015,06,15,06,50,11.70
2015,06,15,06,51,11.80
2015,06,15,06,52,11.90
2015,06,15,06,53,12.00
2015,06,15,06,54,12.10
2015,06,15,06,55,12.20
2015,06,15,06,56,12.30
2015,06,15,06,57,12.40
2015,06,15,06,58,12.40
2015,06,15,06,59,12.50
2015,06,15,07,00,12.50
2015,06,15,07,01,12.60
2015,06,15,07,02,12.60
2015,06,15,07,03,12.60
2015,06,15,07,04,12.60
2015,06,15,07,05,12.70
2015,06,15,07,06,12.70
2015,06,15,07,07,12.70
2015,06,15,07,08,12.80
2015,06,15,07,09,12.80
2015,06,15,07,10,12.80
2015,06,15,07,11,12.90
2015,06,15,07,12,13.00
2015,06,15,07,13,13.10
2015,06,15,07,14,13.20
2015,06,15,07,15,13.30
2015,06,15,07,16,13.30
2015,06,15,07,17,13.40
2015,06,15,07,18,13.40
2015,06,15,07,19,13.50
2015,06,15,07,20,13.60
2015,06,15,07,21,13.70
2015,06,15,07,22,13.70
2015,06,15,07,23,13.80
2015,06,15,07,24,13.80
2015,06,15,07,25,13.90
2015,06,15,07,26,13.90
2015,06,15,07,27,14.00
2015,06,15,07,28,14.00
2015,06,15,07,29,14.10
2015,06,15,07,30,14.20
2015,06,15,07,31,14.20
2015,06,15,07,32,14.20
2015,06,15,07,33,14.30
2015,06,15,07,34,14.30
2015,06,15,07,35,14.30
2015,06,15,07,36,14.40
2015,06,15,07,37,14.40
2015,06,15,07,38,14.50
2015,06,15,07,39,14.50
2015,06,15,07,40,14.60
2015,06,15,07,41,14.60
2015,06,15,07,42,14.70
2015,06,15,07,43,14.80
2015,06,15,07,44,14.90
2015,06,15,07,45,14.90
2015,06,15,07,46,15.00
2015,06,15,07,47,15.10
2015,06,15,07,48,15.20
2015,06,15,07,49,15.20
2015,06,15,07,50,15.30
2015,06,15,07,51,15.40
2015,06,15,07,52,15.50
2015,06,15,07,53,15.60
2015,06,15,07,54,15.70
2015,06,15,07,55,15.80
2015,06,15,07,56,15.90
2015,06,15,07,57,16.00
2015,06,15,07,58,16.10
2015,06,15,07,59,16.10
2015,06,15,08,00,16.20
2015,06,15,08,01,16.30
2015,06,15,08,02,16.40
2015,06,15,08,03,16.50
2015,06,15,08,04,16.60
2015,06,15,08,05,16.80
2015,06,15,08,06,16.90
2015,06,15,08,07,17.00
2015,06,15,08,08,17.10
2015,06,15,08,09,17.20
2015,06,15,08,10,17.30
2015,06,15,08,11,17.50
2015,06,15,08,12,17.60
2015,06,15,08,13,17.80
2015,06,15,08,14,17.90
2015,06,15,08,15,18.10
2015,06,15,08,16,18.20
2015,06,15,08,17,18.30
2015,06,15,08,18,18.40
2015,06,15,08,19,18.50
2015,06,15,08,20,18.50
2015,06,15,08,21,18.60
2015,06,15,08,22,18.60
2015,06,15,08,23,18.70
2015,06,15,08,24,18.70
2015,06,15,08,25,18.80
2015,06,15,08,26,18.80
2015,06,15,08,27,18.80
2015,06,15,08,28,18.90
2015,06,15,08,29,18.90
2015,06,15,08,30,19.00
2015,06,15,08,31,19.10
2015,06,15,08,32,19.20
2015,06,15,08,33,19.30
2015,06,15,08,34,19.30
2015,06,15,08,35,19.40
2015,06,15,08,36,19.50
2015,06,15,08,37,19.60
2015,06,15,08,38,19.70
2015,06,15,08,39,19.80
2015,06,15,08,40,19.90
2015,06,15,08,41,20.00
2015,06,15,08,42,20.10
2015,06,15,08,43,20.20
2015,06,15,08,44,20.30
2015,06,15,08,45,20.40
2015,06,15,08,46,20.40
2015,06,15,08,47,20.50
2015,06,15,08,48,20.50
2015,06,15,08,49,20.60
2015,06,15,08,50,20.60
2015,06,15,08,51,20.60
2015,06,15,08,52,20.60
2015,06,15,08,53,20.70
2015,06,15,08,54,20.80
2015,06,15,08,55,20.90
2015,06,15,08,56,21.00
2015,06,15,08,57,21.00
2015,06,15,08,58,21.10
2015,06,15,08,59,21.10
2015,06,15,09,00,21.20
2015,06,15,09,01,21.30
2015,06,15,09,02,21.40
2015,06,15,09,03,21.40
2015,06,15,09,04,21.50
2015,06,15,09,05,21.50
2015,06,15,09,06,21.60
2015,06,15,09,07,21.70
2015,06,15,09,08,21.80
2015,06,15,09,09,21.90
2015,06,15,09,10,22.00
2015,06,15,09,11,22.10
2015,06,15,09,12,22.20
2015,06,15,09,13,22.30
2015,06,15,09,14,22.30
2015,06,15,09,15,22.40
2015,06,15,09,16,22.40
2015,06,15,09,17,22.50
2015,06,15,09,18,22.50
2015,06,15,09,19,22.60
2015,06,15,09,20,22.60
2015,06,15,09,21,22.70
2015,06,15,09,22,22.70
2015,06,15,09,23,22.70
2015,06,15,09,24,22.80
2015,06,15,09,25,22.80
2015,06,15,09,26,22.80
2015,06,15,09,27,22.90
2015,06,15,09,28,23.00
2015,06,15,09,29,23.10
2015,06,15,09,30,23.20
2015,06,15,09,31,23.20
2015,06,15,09,32,23.20
2015,06,15,09,33,23.30
2015,06,15,09,34,23.30
2015,06,15,09,35,23.30
2015,06,15,09,36,23.40
2015,06,15,09,37,23.40
2015,06,15,09,38,23.40
2015,06,15,09,39,23.30
2015,06,15,09,40,23.20
2015,06,15,09,41,23.10
2015,06,15,09,42,23.00
2015,06,15,09,43,22.90
2015,06,15,09,44,22.90
2015,06,15,09,45,22.90
2015,06,15,09,46,22.90
2015,06,15,09,47,23.00
2015,06,15,09,48,23.00
2015,06,15,09,49,23.10
2015,06,15,09,50,23.20
2015,06,15,09,51,23.20
2015,06,15,09,52,23.30
2015,06,15,09,53,23.50
2015,06,15,09,54,23.60
2015,06,15,09,55,23.60
2015,06,15,09,56,23.50
2015,06,15,09,57,23.50
2015,06,15,09,58,23.40
2015,06,15,09,59,23.40
2015,06,15,10,00,23.50
2015,06,15,10,01,23.50
2015,06,15,10,02,23.60
2015,06,15,10,03,23.60
2015,06,15,10,04,23.60
2015,06,15,10,05,23.60
2015,06,15,10,06,23.60
2015,06,15,10,07,23.60
2015,06,15,10,08,23.60
2015,06,15,10,09,23.60
2015,06,15,10,10,23.60
2015,06,15,10,11,23.60
2015,06,15,10,12,23.60
2015,06,15,10,13,23.60
2015,06,15,10,14,23.50
2015,06,15,10,15,23.40
2015,06,15,10,16,23.30
2015,06,15,10,17,23.30
2015,06,15,10,18,23.30
2015,06,15,10,19,23.30
2015,06,15,10,20,23.30
2015,06,15,10,21,23.40
2015,06,15,10,22,23.30
2015,06,15,10,23,23.30
2015,06,15,10,24,23.30
2015,06,15,10,25,23.30
2015,06,15,10,26,23.40
2015,06,15,10,27,23.40
2015,06,15,10,28,23.40
2015,06,15,10,29,23.40
2015,06,15,10,30,23.50
2015,06,15,10,31,23.50
2015,06,15,10,32,23.60
2015,06,15,10,33,23.60
2015,06,15,10,34,23.70
2015,06,15,10,35,23.70
2015,06,15,10,36,23.80
2015,06,15,10,37,23.90
2015,06,15,10,38,23.90
2015,06,15,10,39,23.90
2015,06,15,10,40,23.90
2015,06,15,10,41,23.80
2015,06,15,10,42,23.80
2015,06,15,10,43,23.80
2015,06,15,10,44,23.80
2015,06,15,10,45,23.80
2015,06,15,10,46,23.80
2015,06,15,10,47,23.80
2015,06,15,10,48,23.80
2015,06,15,10,49,23.80
2015,06,15,10,50,23.80
2015,06,15,10,51,23.90
2015,06,15,10,52,23.90
2015,06,15,10,53,23.90
2015,06,15,10,54,23.90
2015,06,15,10,55,23.90
2015,06,15,10,56,23.80
2015,06,15,10,57,23.70
2015,06,15,10,58,23.70
2015,06,15,10,59,23.70
2015,06,15,11,00,23.70
2015,06,15,11,01,23.70
2015,06,15,11,02,23.80
2015,06,15,11,03,23.80
2015,06,15,11,04,23.80
2015,06,15,11,05,23.80
2015,06,15,11,06,23.80
2015,06,15,11,07,23.80
2015,06,15,11,08,23.90
2015,06,15,11,09,23.90
2015,06,15,11,10,24.00
2015,06,15,11,11,24.00
2015,06,15,11,12,24.00
2015,06,15,11,13,24.10
2015,06,15,11,14,24.20
2015,06,15,11,15,24.30
2015,06,15,11,16,24.40
2015,06,15,11,17,24.60
2015,06,15,11,18,24.70
2015,06,15,11,19,24.80
2015,06,15,11,20,24.80
2015,06,15,11,21,24.80
2015,06,15,11,22,24.90
2015,06,15,11,23,24.90
2015,06,15,11,24,24.90
2015,06,15,11,25,24.90
2015,06,15,11,26,24.90
2015,06,15,11,27,24.90
2015,06,15,11,28,24.90
2015,06,15,11,29,24.90
2015,06,15,11,30,24.90
2015,06,15,11,31,24.90
2015,06,15,11,32,25.00
2015,06,15,11,33,25.00
2015,06,15,11,34,24.90
2015,06,15,11,35,24.80
2015,06,15,11,36,24.80
2015,06,15,11,37,24.70
2015,06,15,11,38,24.70
2015,06,15,11,39,24.70
2015,06,15,11,40,24.70
2015,06,15,11,41,24.70
2015,06,15,11,42,24.80
2015,06,15,11,43,24.80
2015,06,15,11,44,24.80
2015,06,15,11,45,24.70
2015,06,15,11,46,24.70
2015,06,15,11,47,24.70
2015,06,15,11,48,24.70
2015,06,15,11,49,24.70
2015,06,15,11,50,24.80
2015,06,15,11,51,24.90
2015,06,15,11,52,25.00
2015,06,15,11,53,25.10
2015,06,15,11,54,25.10
2015,06,15,11,55,25.20
2015,06,15,11,56,25.20
2015,06,15,11,57,25.20
2015,06,15,11,58,25.10
2015,06,15,11,59,25.10
2015,06,15,12,00,25.10
2015,06,15,12,01,25.10
2015,06,15,12,02,25.20
2015,06,15,12,03,25.20
2015,06,15,12,04,25.20
2015,06,15,12,05,25.30
2015,06,15,12,06,25.40
2015,06,15,12,07,25.50
2015,06,15,12,08,25.50
2015,06,15,12,09,25.60
2015,06,15,12,10,25.70
2015,06,15,12,11,25.80
2015,06,15,12,12,25.90
2015,06,15,12,13,25.90
2015,06,15,12,14,25.90
2015,06,15,12,15,25.90
2015,06,15,12,16,25.90
2015,06,15,12,17,25.90
2015,06,15,12,18,25.90
2015,06,15,12,19,25.90
2015,06,15,12,20,26.00
2015,06,15,12,21,26.00
2015,06,15,12,22,26.10
2015,06,15,12,23,26.00
2015,06,15,12,24,25.90
2015,06,15,12,25,25.70
2015,06,15,12,26,25.50
2015,06,15,12,27,25.40
2015,06,15,12,28,25.30
2015,06,15,12,29,25.30
2015,06,15,12,30,25.30
2015,06,15,12,31,25.40
2015,06,15,12,32,25.50
2015,06,15,12,33,25.50
2015,06,15,12,34,25.60
2015,06,15,12,35,25.70
2015,06,15,12,36,25.80
2015,06,15,12,37,25.80
2015,06,15,12,38,25.90
2015,06,15,12,39,25.90
2015,06,15,12,40,26.00
2015,06,15,12,41,26.00
2015,06,15,12,42,26.00
2015,06,15,12,43,26.00
2015,06,15,12,44,25.90
2015,06,15,12,45,25.90
2015,06,15,12,46,25.90
2015,06,15,12,47,25.90
2015,06,15,12,48,25.90
2015,06,15,12,49,25.90
2015,06,15,12,50,26.00
2015,06,15,12,51,26.00
2015,06,15,12,52,26.00
2015,06,15,12,53,26.10
2015,06,15,12,54,26.10
2015,06,15,12,55,26.10
2015,06,15,12,56,26.10
2015,06,15,12,57,26.20
2015,06,15,12,58,26.20
2015,06,15,12,59,26.30
2015,06,15,13,00,26.30
2015,06,15,13,01,26.20
2015,06,15,13,02,26.20
2015,06,15,13,03,26.20
2015,06,15,13,04,26.20
2015,06,15,13,05,26.30
2015,06,15,13,06,26.30
2015,06,15,13,07,26.40
2015,06,15,13,08,26.50
2015,06,15,13,09,26.50
2015,06,15,13,10,26.60
2015,06,15,13,11,26.70
2015,06,15,13,12,26.70
2015,06,15,13,13,26.80
2015,06,15,13,14,26.80
2015,06,15,13,15,26.80
2015,06,15,13,16,26.90
2015,06,15,13,17,26.90
2015,06,15,13,18,27.00
2015,06,15,13,19,27.00
2015,06,15,13,20,27.10
2015,06,15,13,21,27.10
2015,06,15,13,22,27.20
2015,06,15,13,23,27.20
2015,06,15,13,24,27.10
2015,06,15,13,25,27.00
2015,06,15,13,26,26.90
2015,06,15,13,27,26.90
2015,06,15,13,28,26.80
2015,06,15,13,29,26.80
2015,06,15,13,30,26.80
2015,06,15,13,31,26.70
2015,06,15,13,32,26.70
2015,06,15,13,33,26.60
2015,06,15,13,34,26.50
2015,06,15,13,35,26.40
2015,06,15,13,36,26.40
2015,06,15,13,37,26.40
2015,06,15,13,38,26.40
2015,06,15,13,39,26.50
2015,06,15,13,40,26.60
2015,06,15,13,41,26.70
2015,06,15,13,42,26.80
2015,06,15,13,43,26.90
2015,06,15,13,44,26.90
2015,06,15,13,45,26.80
2015,06,15,13,46,26.80
2015,06,15,13,47,26.80
2015,06,15,13,48,26.80
2015,06,15,13,49,26.80
2015,06,15,13,50,26.80
2015,06,15,13,51,26.90
2015,06,15,13,52,26.90
2015,06,15,13,53,26.90
2015,06,15,13,54,26.90
2015,06,15,13,55,26.90
2015,06,15,13,56,26.90
2015,06,15,13,57,27.00
2015,06,15,13,58,27.00
2015,06,15,13,59,27.10
2015,06,15,14,00,27.10
2015,06,15,14,01,27.10
2015,06,15,14,02,27.10
2015,06,15,14,03,27.10
2015,06,15,14,04,27.10
2015,06,15,14,05,27.10
2015,06,15,14,06,27.10
2015,06,15,14,07,27.00
2015,06,15,14,08,26.90
2015,06,15,14,09,26.80
2015,06,15,14,10,26.70
2015,06,15,14,11,26.60
2015,06,15,14,12,26.50
2015,06,15,14,13,26.40
2015,06,15,14,14,26.30
2015,06,15,14,15,26.30
2015,06,15,14,16,26.10
2015,06,15,14,17,26.00
2015,06,15,14,18,26.00
2015,06,15,14,19,26.00
2015,06,15,14,20,26.00
2015,06,15,14,21,26.10
2015,06,15,14,22,26.00
2015,06,15,14,23,26.00
2015,06,15,14,24,26.10
2015,06,15,14,25,26.10
2015,06,15,14,26,26.20
2015,06,15,14,27,26.20
2015,06,15,14,28,26.10
2015,06,15,14,29,26.00
2015,06,15,14,30,25.90
2015,06,15,14,31,25.80
2015,06,15,14,32,25.70
2015,06,15,14,33,25.70
2015,06,15,14,34,25.70
2015,06,15,14,35,25.70
2015,06,15,14,36,25.70
2015,06,15,14,37,25.80
2015,06,15,14,38,25.80
2015,06,15,14,39,25.80
2015,06,15,14,40,25.90
2015,06,15,14,41,25.90
2015,06,15,14,42,25.90
2015,06,15,14,43,26.00
2015,06,15,14,44,26.00
2015,06,15,14,45,26.10
2015,06,15,14,46,26.10
2015,06,15,14,47,26.10
2015,06,15,14,48,26.10
2015,06,15,14,49,26.20
2015,06,15,14,50,26.20
2015,06,15,14,51,26.20
2015,06,15,14,52,26.20
2015,06,15,14,53,26.20
2015,06,15,14,54,26.20
2015,06,15,14,55,26.20
2015,06,15,14,56,26.30
2015,06,15,14,57,26.30
2015,06,15,14,58,26.30
2015,06,15,14,59,26.30
2015,06,15,15,00,26.20
2015,06,15,15,01,26.10
2015,06,15,15,02,26.00
2015,06,15,15,03,25.90
2015,06,15,15,04,25.90
2015,06,15,15,05,25.80
2015,06,15,15,06,25.80
2015,06,15,15,07,25.70
2015,06,15,15,08,25.60
2015,06,15,15,09,25.60
2015,06,15,15,10,25.60
2015,06,15,15,11,25.60
2015,06,15,15,12,25.70
2015,06,15,15,13,25.80
2015,06,15,15,14,25.90
2015,06,15,15,15,26.00
2015,06,15,15,16,26.10
2015,06,15,15,17,26.20
2015,06,15,15,18,26.20
2015,06,15,15,19,26.10
2015,06,15,15,20,26.10
2015,06,15,15,21,26.20
2015,06,15,15,22,26.20
2015,06,15,15,23,26.30
2015,06,15,15,24,26.30
2015,06,15,15,25,26.30
2015,06,15,15,26,26.40
2015,06,15,15,27,26.40
2015,06,15,15,28,26.50
2015,06,15,15,29,26.60
2015,06,15,15,30,26.70
2015,06,15,15,31,26.70
2015,06,15,15,32,26.80
2015,06,15,15,33,26.80
2015,06,15,15,34,26.80
2015,06,15,15,35,26.80
2015,06,15,15,36,26.80
2015,06,15,15,37,26.90
2015,06,15,15,38,26.90
2015,06,15,15,39,26.90
2015,06,15,15,40,26.90
2015,06,15,15,41,26.90
2015,06,15,15,42,26.90
2015,06,15,15,43,26.90
2015,06,15,15,44,26.90
2015,06,15,15,45,26.90
2015,06,15,15,46,26.90
2015,06,15,15,47,26.90
2015,06,15,15,48,27.00
2015,06,15,15,49,27.10
2015,06,15,15,50,27.10
2015,06,15,15,51,27.20
2015,06,15,15,52,27.30
2015,06,15,15,53,27.40
2015,06,15,15,54,27.50
2015,06,15,15,55,27.60
2015,06,15,15,56,27.60
2015,06,15,15,57,27.50
2015,06,15,15,58,27.40
2015,06,15,15,59,27.40
2015,06,15,16,00,27.30
2015,06,15,16,01,27.40
2015,06,15,16,02,27.40
2015,06,15,16,03,27.40
2015,06,15,16,04,27.30
2015,06,15,16,05,27.30
2015,06,15,16,06,27.20
2015,06,15,16,07,27.20
2015,06,15,16,08,27.10
2015,06,15,16,09,27.20
2015,06,15,16,10,27.30
2015,06,15,16,11,27.30
2015,06,15,16,12,27.40
2015,06,15,16,13,27.50
2015,06,15,16,14,27.50
2015,06,15,16,15,27.60
2015,06,15,16,16,27.70
2015,06,15,16,17,27.80
2015,06,15,16,18,27.80
2015,06,15,16,19,27.90
2015,06,15,16,20,27.90
2015,06,15,16,21,27.90
2015,06,15,16,22,28.00
2015,06,15,16,23,28.10
2015,06,15,16,24,28.10
2015,06,15,16,25,28.10
2015,06,15,16,26,28.10
2015,06,15,16,27,28.00
2015,06,15,16,28,28.10
2015,06,15,16,29,28.10
2015,06,15,16,30,28.10
2015,06,15,16,31,28.10
2015,06,15,16,32,28.10
2015,06,15,16,33,28.10
2015,06,15,16,34,28.10
2015,06,15,16,35,28.10
2015,06,15,16,36,28.10
2015,06,15,16,37,28.10
2015,06,15,16,38,28.10
2015,06,15,16,39,28.10
2015,06,15,16,40,28.10
2015,06,15,16,41,28.10
2015,06,15,16,42,28.20
2015,06,15,16,43,28.10
2015,06,15,16,44,28.00
2015,06,15,16,45,28.00
2015,06,15,16,46,27.90
2015,06,15,16,47,27.90
2015,06,15,16,48,27.90
2015,06,15,16,49,28.00
2015,06,15,16,50,28.10
2015,06,15,16,51,28.20
2015,06,15,16,52,28.20
2015,06,15,16,53,28.30
2015,06,15,16,54,28.30
2015,06,15,16,55,28.30
2015,06,15,16,56,28.40
2015,06,15,16,57,28.40
2015,06,15,16,58,28.40
2015,06,15,16,59,28.40
2015,06,15,17,00,28.40
2015,06,15,17,01,28.40
2015,06,15,17,02,28.30
2015,06,15,17,03,28.20
2015,06,15,17,04,28.20
2015,06,15,17,05,28.10
2015,06,15,17,06,28.00
2015,06,15,17,07,28.00
2015,06,15,17,08,27.90
2015,06,15,17,09,27.80
2015,06,15,17,10,27.80
2015,06,15,17,11,27.90
2015,06,15,17,12,27.90
2015,06,15,17,13,27.90
2015,06,15,17,14,27.90
2015,06,15,17,15,27.90
2015,06,15,17,16,27.80
2015,06,15,17,17,27.80
2015,06,15,17,18,27.80
2015,06,15,17,19,27.80
2015,06,15,17,20,27.80
2015,06,15,17,21,27.80
2015,06,15,17,22,27.80
2015,06,15,17,23,27.80
2015,06,15,17,24,27.80
2015,06,15,17,25,27.90
2015,06,15,17,26,27.90